Location: Rometta
(44.2000°N, 10.0500°E)
Time: 16:38:47
(UTC+00:00)

H-2A R/B - Pass Details

Date: 20 January 2021
Orbit: 734 x 836 km, 98.2° (Epoch: 01 March)

Event Time Altitude Azimuth Distance (km) Brightness Sun altitude
Rises 18:08:56 0° 168° (SSE) 3,162 5.2 -20.4°
Reaches altitude 10° 18:11:11 10° 169° (S) 2,251 4.4 -20.8°
Maximum altitude 18:16:08 81° 257° (WSW) 770 2.0 -21.7°
Drops below altitude 10° 18:21:15 10° 345° (NNW) 2,323 4.6 -22.6°
Sets 18:23:37 0° 346° (NNW) 3,270 5.4 -23.0°
